This demonstration page uses our WeatherBlox Daily Observations layout. Learn more.

Left ArrowRight Arrow

34.16533, -84.80231

Hourly Observations for March 29, 2021

Temp ( °F °C ) Dew Point ( °F °C ) Humidity (%) Winds ( mph kmh ) Pressure ( in mb ) Visibility ( mi km ) Precip ( " mm )
12:53 am 00:53 Clear 52 11.1 31 -0.6 45 45 NNW 6 9 30.18 1022 10 16 0.00 0.00
1:53 am 01:53 Clear 50 10 31 -0.6 48 48 VRB 5 7 30.18 1022 10 16 0.00 0.00
2:53 am 02:53 Clear 49 9.4 28 -2.2 44 44 N 12 19 30.18 1022 10 16 0.00 0.00
3:53 am 03:53 Clear 47 8.3 27 -2.8 46 46 N 5 7 30.17 1022 10 16 0.00 0.00
4:53 am 04:53 Clear 46 7.8 28 -2.2 50 50 NNW 6 9 30.18 1022 10 16 0.00 0.00
5:53 am 05:53 Clear 45 7.2 27 -2.8 49 49 N 6 9 30.19 1022 10 16 0.00 0.00
6:53 am 06:53 Clear 44 6.7 27 -2.8 51 51 Calm 30.19 1023 10 16 0.00 0.00
7:53 am 07:53 Sunny 38 3.3 30 -1.1 73 73 Calm 30.23 1024 10 16 0.00 0.00
8:53 am 08:53 Sunny 47 8.3 31 -0.6 54 54 VRB 3 6 30.25 1024 10 16 0.00 0.00
9:53 am 09:53 Sunny 50 10 28 -2.2 43 43 N 7 11 30.26 1025 10 16 0.00 0.00
10:53 am 10:53 Sunny 54 12.2 27 -2.8 35 35 NNE 7 11 30.26 1025 10 16 0.00 0.00
11:53 am 11:53 Sunny 56 13.3 27 -2.8 33 33 Calm 30.26 1025 10 16 0.00 0.00
12:53 pm 12:53 Sunny 60 15.6 30 -1.1 32 32 Calm 30.24 1024 10 16 0.00 0.00
1:53 pm 13:53 Sunny 62 16.7 28 -2.2 28 28 Calm 30.22 1023 10 16 0.00 0.00
2:53 pm 14:53 Sunny 65 18.3 30 -1.1 27 27 N 7 11 30.20 1023 10 16 0.00 0.00
3:53 pm 15:53 Sunny 66 18.9 29 -1.7 25 25 VRB 5 7 30.17 1022 10 16 0.00 0.00
4:53 pm 16:53 Sunny 68 20 26 -3.3 21 21 Calm 30.15 1021 10 16 0.00 0.00
5:53 pm 17:53 Sunny 69 20.6 28 -2.2 22 22 S 3 6 30.14 1021 10 16 0.00 0.00
6:53 pm 18:53 Sunny 69 20.6 29 -1.7 22 22 Calm 30.13 1020 10 16 0.00 0.00
7:53 pm 19:53 Sunny 61 16.1 35 1.7 38 38 Calm 30.14 1021 10 16 0.00 0.00
8:53 pm 20:53 Clear 54 12.2 37 2.8 53 53 Calm 30.14 1021 10 16 0.00 0.00
9:53 pm 21:53 Clear 51 10.6 39 3.9 64 64 Calm 30.16 1021 10 16 0.00 0.00
10:53 pm 22:53 Clear 49 9.4 39 3.9 69 69 Calm 30.18 1022 10 16 0.00 0.00
11:53 pm 23:53 Clear 54 12.2 36 2.2 51 51 SE 6 9 30.19 1022 10 16 0.00 0.00

Powered by AerisWeather